KC0VVH Weather Reports


time (UTC)temp
F
wind
direction
speed
knots
gust
knots
rain 1hr
in
rain 24hr
in
rain mn
in
humidity
%
barometer
mb
20260902194512 67 198 0.0 2.6 0.07 0.73 0.25 74 1016.5
20260902193612 67 0 0.0 0.0 0.20 0.73 0.25 77 1016.5
20260902192712 66 0 0.0 0.0 0.20 0.73 0.25 73 1016.5
20260902191812 66 0 0.0 0.0 0.20 0.73 0.25 73 1016.5
20260902190933 66 0 0.0 0.0 0.21 0.73 0.25 72 1016.5
20260902190033 66 0 0.0 0.9 0.21 0.73 0.25 73 1016.5
20260902185412 66 326 0.0 6.1 0.21 0.73 0.25 71 1016.5
20260902184512 70 326 3.5 15.6 0.14 0.66 0.20 63 1016.5
20260902183633 72 352 2.6 9.6 0.01 0.53 0.05 56 1016.5
20260902182712 71 347 2.6 9.6 0.02 0.53 0.05 59 1016.5
20260902181833 70 316 0.9 7.8 0.05 0.53 0.05 64 1016.5
20260902180912 71 335 1.7 7.0 0.04 0.52 0.04 59 1016.5
20260902180012 71 357 2.6 8.7 0.04 0.52 0.04 59 1016.5
20260902175412 71 347 2.6 8.7 0.04 0.52 0.04 63 1016.5
20260902174512 70 356 1.7 8.7 0.04 0.52 0.04 68 1016.5
20260902173612 71 339 0.9 7.8 0.04 0.52 0.04 64 1016.5
20260902172712 73 258 2.6 11.3 0.03 0.51 0.03 57 1016.5
20260902171812 76 311 2.6 7.8 0.00 0.48 0.00 51 1016.5
20260902170912 78 22 1.7 5.2 0.00 0.48 0.00 49 1016.5
20260902170012 78 8 2.6 5.2 0.00 0.48 0.00 44 1016.5
20260902165412 79 15 2.6 6.1 0.00 0.48 0.00 45 1016.5
20260902164512 80 48 2.6 9.6 0.00 0.48 0.00 45 1016.5
20260902163612 79 68 2.6 9.6 0.00 0.48 0.00 41 1016.5
20260902162712 79 337 0.0 3.5 0.00 0.48 0.00 41 1016.5
20260902161812 78 82 0.9 4.3 0.00 0.48 0.00 44 1016.5
20260902160912 76 82 2.6 6.1 0.00 0.48 0.00 44 1016.5
20260902160012 75 81 0.9 4.3 0.00 0.48 0.00 47 1016.5
20260902155412 74 66 1.7 4.3 0.00 0.48 0.00 49 1016.5
20260902154512 74 62 3.5 7.0 0.00 0.48 0.00 50 1016.5
20260902153612 73 65 3.5 7.0 0.00 0.48 0.00 51 1016.5
20260902152712 73 47 1.7 7.0 0.00 0.48 0.00 50 1016.5
20260902151812 72 45 1.7 5.2 0.00 0.48 0.00 53 1016.5
20260902150912 71 40 1.7 8.7 0.00 0.48 0.00 52 1016.5
20260902150012 69 223 1.7 5.2 0.00 0.48 0.00 53 1016.5
20260902145412 69 222 2.6 6.1 0.00 0.48 0.00 54 1016.5
20260902144512 68 217 1.7 6.1 0.00 0.48 0.00 54 1016.5
20260902143612 67 217 0.9 7.0 0.00 0.48 0.00 55 1016.5
20260902142712 66 179 1.7 7.0 0.00 0.48 0.00 55 1016.5
20260902141812 66 215 0.0 2.6 0.00 0.48 0.00 56 1016.5
20260902140912 65 215 0.0 1.7 0.00 0.48 0.00 56 1016.5
20260902140012 65 215 0.0 2.6 0.00 0.48 0.00 55 1016.5
20260902135412 65 215 0.9 4.3 0.00 0.48 0.00 55 1016.5
20260902134512 65 164 0.9 5.2 0.00 0.48 0.00 56 1016.5
20260902133612 64 106 0.9 5.2 0.00 0.48 0.00 57 1016.5
20260902132712 63 171 0.9 5.2 0.00 0.48 0.00 58 1016.5
20260902131812 61 144 0.9 4.3 0.00 0.48 0.00 61 1016.5
20260902130912 59 149 0.0 0.9 0.00 0.48 0.00 65 1016.5
20260902130012 58 0 0.0 0.0 0.00 0.48 0.00 72 1016.5
20260902125412 58 0 0.0 0.0 0.00 0.48 0.00 72 1016.5
20260902124512 59 0 0.0 0.0 0.00 0.48 0.00 70 1016.5
20260902123612 59 0 0.0 0.0 0.00 0.48 0.00 69 1016.5
20260902122712 60 0 0.0 0.0 0.00 0.48 0.00 68 1016.5
20260902121833 60 0 0.0 0.9 0.00 0.48 0.00 67 1016.5
20260902120933 60 0 0.0 0.0 0.00 0.48 0.00 68 1016.5
20260902120033 60 0 0.0 0.0 0.00 0.48 0.00 68 1016.5
20260902115412 61 92 0.0 2.6 0.00 0.48 0.00 66 1016.5
20260902114512 61 92 0.0 1.7 0.00 0.48 0.00 64 1016.5
20260902113612 62 92 0.0 1.7 0.00 0.48 0.00 64 1016.5
20260902112712 62 0 0.0 0.9 0.00 0.48 0.00 63 1016.5
20260902111812 61 0 0.0 0.9 0.00 0.48 0.00 65 1016.5
20260902110933 61 0 0.0 0.0 0.00 0.48 0.00 66 1016.5
20260902110012 61 92 0.0 2.6 0.00 0.48 0.00 65 1016.5
20260902105433 61 92 0.0 2.6 0.00 0.48 0.00 67 1016.5
20260902104512 61 92 0.0 3.5 0.00 0.48 0.00 66 1016.5
20260902103612 62 0 0.0 0.0 0.00 0.48 0.00 66 1016.5
20260902102712 62 0 0.0 0.0 0.00 0.48 0.00 66 1016.5
20260902101812 62 0 0.0 0.0 0.00 0.48 0.00 64 1016.5
20260902100912 61 0 0.0 0.9 0.00 0.48 0.00 66 1016.5
20260902100033 60 0 0.0 0.0 0.00 0.48 0.00 70 1016.5
20260902095412 60 0 0.0 0.0 0.00 0.48 0.00 72 1016.5
20260902094512 60 0 0.0 0.0 0.00 0.48 0.00 70 1016.5
20260902093612 60 0 0.0 0.0 0.00 0.48 0.00 72 1016.5
20260902092712 61 0 0.0 0.0 0.00 0.48 0.00 70 1016.5
20260902091812 61 0 0.0 0.0 0.00 0.48 0.00 71 1016.5
20260902090912 61 0 0.0 0.0 0.00 0.48 0.00 69 1016.5
20260902090012 62 0 0.0 0.0 0.00 0.48 0.00 68 1016.5
20260902085412 62 0 0.0 0.0 0.00 0.48 0.00 67 1016.5
20260902084533 62 0 0.0 0.0 0.00 0.48 0.00 66 1016.5
20260902083633 63 0 0.0 0.0 0.00 0.48 0.00 64 1016.5
20260902082712 63 92 0.0 1.7 0.00 0.48 0.00 64 1016.5
20260902081812 63 0 0.0 0.0 0.00 0.48 0.00 63 1016.5
20260902080912 64 0 0.0 0.0 0.00 0.48 0.00 61 1016.5
20260902080012 64 92 0.0 2.6 0.00 0.48 0.00 61 1016.5
20260902075412 65 92 0.0 2.6 0.00 0.48 0.00 62 1016.5
20260902074512 65 95 1.7 7.8 0.00 0.48 0.00 59 1016.5
20260902073612 65 0 0.0 0.0 0.00 0.48 0.00 60 1016.5
20260902072733 66 164 0.0 4.3 0.00 0.48 0.00 58 1016.5
20260902071812 66 0 0.0 0.0 0.00 0.48 0.00 55 1016.5
20260902070912 66 0 0.0 0.0 0.00 0.48 0.00 56 1016.5
20260902070012 65 167 0.0 3.5 0.00 0.48 0.00 56 1016.5
20260902065412 65 0 0.0 0.0 0.00 0.48 0.00 59 1016.5
20260902064533 65 0 0.0 0.0 0.00 0.48 0.00 60 1016.5
20260902063612 66 0 0.0 0.0 0.00 0.48 0.00 56 1016.5
20260902062712 66 0 0.0 0.0 0.00 0.48 0.00 58 1016.5
20260902061812 66 0 0.0 0.0 0.00 0.48 0.00 58 1016.5
20260902060912 66 0 0.0 0.0 0.00 0.48 0.00 58 1016.5
20260902060012 66 167 0.0 2.6 0.00 0.48 0.00 57 1016.5
20260902055412 66 167 0.0 0.9 0.00 0.48 0.48 59 1016.5
20260902054512 67 167 0.9 5.2 0.00 0.48 0.48 59 1016.5
20260902053612 67 0 0.0 0.0 0.00 0.48 0.48 55 1016.5
20260902052733 67 166 0.0 3.5 0.00 0.48 0.48 55 1016.5
20260902051812 67 166 0.9 4.3 0.00 0.48 0.48 54 1016.5
20260902050912 69 179 1.7 5.2 0.00 0.48 0.48 56 1016.5
20260902050012 70 242 0.9 4.3 0.00 0.48 0.48 50 1016.5
20260902045412 71 244 0.9 6.1 0.00 0.48 0.48 44 1016.5
20260902044512 70 244 0.9 6.1 0.00 0.48 0.48 44 1016.5
20260902043633 71 244 0.9 3.5 0.00 0.48 0.48 45 1016.5
20260902042712 70 247 0.9 6.1 0.00 0.48 0.48 46 1016.5
20260902041812 71 245 0.9 7.0 0.00 0.48 0.48 47 1016.5
20260902040933 71 246 0.9 6.1 0.00 0.48 0.48 47 1016.5
20260902040033 71 249 1.7 7.8 0.00 0.48 0.48 47 1016.5
20260902035433 71 251 1.7 7.8 0.00 0.48 0.48 47 1016.5
20260902034512 71 243 0.9 5.2 0.00 0.48 0.48 49 1016.5
20260902033612 71 243 0.9 4.3 0.00 0.48 0.48 52 1016.5
20260902032712 71 244 0.9 4.3 0.00 0.48 0.48 54 1016.5
20260902031812 71 244 0.9 6.1 0.00 0.48 0.48 55 1016.5
20260902030912 71 243 1.7 7.8 0.00 0.48 0.48 55 1016.5
20260902030012 70 239 0.9 5.2 0.00 0.48 0.48 56 1016.5
20260902025412 70 239 0.9 5.2 0.00 0.48 0.48 57 1016.5
20260902024512 70 239 1.7 5.2 0.00 0.48 0.48 58 1016.5
20260902023633 71 240 1.7 5.2 0.00 0.48 0.48 58 1016.5
20260902022712 71 240 1.7 7.0 0.00 0.48 0.48 58 1016.5
20260902021812 71 240 1.7 4.3 0.00 0.48 0.48 57 1016.5
20260902020912 71 240 0.9 3.5 0.00 0.48 0.48 58 1016.5
20260902020012 71 240 0.9 3.5 0.00 0.48 0.48 59 1016.5
20260902015412 71 240 0.9 4.3 0.00 0.48 0.48 58 1016.5
20260902014512 71 240 0.0 3.5 0.00 0.48 0.48 58 1016.5
20260902013612 71 240 0.9 4.3 0.00 0.48 0.48 56 1016.5
20260902012712 72 240 0.9 4.3 0.00 0.48 0.48 56 1016.5
20260902011812 72 225 0.9 4.3 0.00 0.48 0.48 55 1016.5
20260902010933 72 215 0.9 4.3 0.00 0.48 0.48 56 1016.5
20260902010012 71 0 0.0 0.0 0.00 0.48 0.48 55 1016.5
20260902005412 72 153 0.0 4.3 0.00 0.48 0.48 56 1016.5
20260902004512 72 0 0.0 0.0 0.00 0.48 0.48 58 1016.5
20260902003612 72 88 0.0 2.6 0.00 0.48 0.48 57 1016.5
20260902002712 73 89 0.9 6.1 0.00 0.48 0.48 52 1016.5
20260902001812 74 106 0.9 6.1 0.00 0.48 0.48 52 1016.5
20260902000912 74 207 0.9 7.0 0.00 0.48 0.48 53 1016.5
20260902000012 74 222 0.9 7.0 0.00 0.48 0.48 51 1016.5
20260901235412 74 0 0.0 0.0 0.01 0.48 0.48 48 1016.5
20260901234512 73 285 0.0 2.6 0.01 0.48 0.48 58 1016.5
20260901233612 71 273 0.9 3.5 0.01 0.48 0.48 61 1016.5
20260901232712 70 274 0.0 1.7 0.01 0.48 0.48 65 1016.5
20260901231812 69 0 0.0 0.0 0.01 0.48 0.48 66 1016.5
20260901230912 68 0 0.0 0.9 0.01 0.48 0.48 71 1016.5
20260901230012 67 0 0.0 0.9 0.01 0.48 0.48 77 1016.5
20260901225412 66 0 0.0 0.0 0.01 0.47 0.47 82 1016.5
20260901224512 64 239 0.9 7.0 0.04 0.47 0.47 78 1016.5
20260901223633 64 231 1.7 7.8 0.13 0.47 0.47 81 1016.5
20260901222712 63 232 0.9 4.3 0.31 0.47 0.47 80 1016.5
20260901221812 62 0 0.0 0.0 0.47 0.47 0.47 86 1016.5
20260901220912 62 0 0.0 0.9 0.47 0.47 0.47 86 1016.5
20260901220012 61 0 0.0 0.0 0.47 0.47 0.47 85 1016.5
20260901215412 61 0 0.0 0.0 0.46 0.46 0.46 83 1016.5
20260901214512 61 241 0.9 7.0 0.43 0.43 0.43 80 1016.5
20260901213612 62 229 5.2 22.6 0.34 0.34 0.34 76 1016.5
20260901212712 66 211 13.0 29.5 0.16 0.16 0.16 67 1016.5
20260901211812 77 210 3.5 21.7 0.00 0.00 0.00 51 1016.5
20260901210912 78 42 0.9 4.3 0.00 0.00 0.00 45 1016.5
20260901210012 80 47 0.9 6.1 0.00 0.00 0.00 44 1016.5
20260901205412 80 49 2.6 7.8 0.00 0.00 0.00 42 1016.5
20260901204512 81 52 2.6 7.8 0.00 0.00 0.00 43 1016.5
20260901203633 81 49 0.0 2.6 0.00 0.00 0.00 42 1016.5
20260901202712 80 44 0.9 6.1 0.00 0.00 0.00 43 1016.5
20260901201812 81 41 1.7 7.8 0.00 0.00 0.00 42 1016.5
20260901200933 80 46 2.6 7.8 0.00 0.00 0.00 42 1016.5
20260901200012 80 46 0.9 5.2 0.00 0.00 0.00 43 1016.5
20260901195433 79 40 1.7 6.1 0.00 0.00 0.00 44 1016.5